Wind_Speed
13 13 14 13 13 14 14 13 13 13 12 12 12 11 11 11 11 10 10 10 10 10 10 9 9 9 9 8 8 7 7 6 6 5 5 5 5 5 5 5 4 4 4
14 14 14 14 14 14 15 14 14 14 13 13 13 13 13 12 12 12 12 12 11 11 11 11 11 11 10 10 10 9 8 8 7 7 6 6 6 7 7 6 6 6 5
15 15 15 15 15 15 15 15 15 14 14 14 14 14 14 14 14 14 13 13 13 13 12 12 12 12 12 11 11 10 10 9 9 9 8 8 8 7 7 8 8 7 7
17 16 16 16 16 16 16 16 16 15 15 15 15 15 15 15 15 16 15 15 15 15 14 14 14 14 13 13 12 12 11 11 10 10 10 10 9 9 9 8 9 8 9
18 18 18 18 17 17 17 16 16 16 16 16 16 17 17 17 17 17 17 17 16 16 16 16 16 15 15 15 14 13 12 12 12 12 12 12 11 11 10 10 10 10 10
20 20 19 19 19 19 19 19 18 18 18 18 18 18 18 18 18 18 18 18 18 17 17 17 17 17 17 16 16 15 15 14 14 13 13 13 13 13 12 12 11 11 11
21 21 21 21 21 21 21 21 20 20 20 20 19 19 20 20 20 19 19 19 19 19 18 18 18 19 19 18 18 17 17 16 15 15 15 15 15 15 14 14 13 13 12
23 23 23 22 22 22 23 22 22 21 21 21 21 21 21 21 21 21 21 21 20 20 21 21 21 20 20 20 20 19 19 18 17 17 17 16 16 16 16 16 15 14 14
24 24 24 24 23 23 23 23 23 23 23 23 22 22 21 21 21 22 22 22 22 22 22 22 22 22 22 22 22 22 21 20 19 18 18 18 17 17 17 17 16 16 15
25 25 25 25 25 25 24 24 24 24 24 24 24 23 23 23 23 23 23 24 24 24 24 24 24 23 23 23 23 23 23 22 21 20 19 19 19 19 19 18 18 17 17
27 26 26 26 26 26 26 26 26 26 26 26 26 25 25 25 25 25 25 25 25 25 25 25 25 25 25 25 25 25 25 24 23 22 22 21 21 20 20 20 20 19 19
28 28 28 28 28 28 28 28 28 28 28 28 28 28 28 27 27 27 27 27 27 27 26 26 26 27 27 27 27 27 27 26 26 25 24 24 23 23 22 22 22 21 21
30 30 30 30 30 30 30 30 29 30 30 30 30 30 30 30 29 29 29 29 29 29 29 29 29 29 29 29 29 28 28 28 28 27 26 26 26 25 25 24 23 23 22
31 31 32 32 32 32 32 32 32 32 32 32 32 33 33 32 32 32 31 31 31 30 31 31 31 31 31 31 30 30 29 29 29 28 28 27 27 27 27 26 26 25 24
34 34 34 34 34 34 34 34 34 34 34 34 33 34 34 34 35 34 34 35 34 33 32 32 32 32 32 32 32 31 31 31 31 31 30 30 29 29 29 29 28 27 27
35 36 37 37 37 37 37 37 37 37 37 37 37 36 36 36 36 37 37 37 36 36 35 35 34 34 33 33 33 33 33 33 33 33 32 32 31 31 31 31 31 30 29
37 38 39 39 40 40 40 40 40 39 39 40 39 39 39 39 38 39 39 39 38 38 38 38 37 37 36 36 35 35 35 35 34 34 34 34 34 33 33 33 33 33 32
39 40 42 42 43 43 43 43 43 43 42 42 42 42 42 41 42 41 41 41 41 40 40 40 40 39 39 38 38 37 37 37 37 36 36 35 36 36 36 35 35 34 34
41 42 44 45 45 46 46 46 46 46 46 45 45 45 45 44 44 44 43 42 42 43 42 42 42 42 42 41 41 40 38 38 38 38 38 37 37 37 37 37 37 36 36
43 44 45 47 48 48 49 49 49 49 49 48 48 48 48 48 47 46 45 44 44 44 45 44 44 44 44 43 42 42 41 40 40 40 39 39 39 39 38 39 39 38 38
45 46 47 49 50 51 51 51 51 52 52 52 52 51 51 51 50 49 48 48 47 47 47 46 46 46 45 45 44 43 42 43 42 42 42 41 42 42 41 41 41 40 39
46 47 49 50 51 53 53 54 54 54 55 55 54 53 53 53 53 52 51 51 50 50 50 50 49 48 47 47 46 45 44 44 44 44 43 43 43 43 42 42 42 42 41
46 48 49 51 53 54 55 55 56 56 57 56 55 55 55 55 55 54 53 53 53 52 52 52 52 51 50 49 49 48 47 46 45 45 46 46 45 44 44 44 44 44 43
46 48 49 50 52 53 55 56 56 57 57 58 57 56 56 56 55 56 56 55 55 55 54 53 53 52 52 51 51 50 50 49 48 46 46 47 47 47 46 46 45 45 45
46 47 48 50 51 52 53 55 55 56 57 58 58 58 58 57 57 57 58 57 57 57 56 55 54 54 53 53 53 52 52 51 51 50 48 47 47 47 47 47 47 46 47
45 46 46 48 49 51 52 54 55 55 56 56 57 57 58 58 57 57 57 58 58 57 57 56 55 55 55 55 54 54 53 52 51 51 51 50 49 48 48 48 48 47 47
Wind_Direction
253 254 254 254 252 249 249 249 246 243 241 241 240 238 239 239 237 236 236 238 240 240 240 238 237 235 232 232 232 231 230 228 224 224 225 226 222 222 221 220 220 223 223
255 256 256 255 254 252 250 249 248 245 243 243 243 243 243 243 242 241 239 240 242 244 244 242 240 239 237 235 234 234 234 234 232 231 235 236 235 233 232 231 232 233 233
255 256 256 256 255 255 254 251 248 247 245 246 246 244 245 245 245 244 244 242 243 245 246 245 243 242 240 239 239 237 237 236 236 236 238 240 241 240 239 238 238 237 237
255 255 255 255 254 254 254 255 252 249 248 246 246 245 246 247 247 246 246 246 247 247 247 247 245 243 242 241 240 239 239 239 239 239 240 243 245 245 245 244 243 240 239
255 254 255 255 254 254 254 255 255 253 251 249 248 248 248 248 248 249 248 248 248 249 249 248 245 244 244 242 239 240 242 242 242 242 243 245 247 248 247 246 247 246 243
254 254 254 255 254 255 255 254 255 256 254 252 250 249 250 250 250 250 250 250 249 251 251 250 247 245 244 244 242 243 243 245 246 246 247 248 248 249 249 249 252 250 248
254 254 255 255 255 255 256 255 255 256 256 254 252 252 252 252 252 251 251 251 251 252 253 251 249 247 246 245 245 244 245 246 248 249 250 251 251 251 250 250 252 252 251
254 254 255 255 256 256 256 257 256 256 258 257 254 253 254 254 252 252 253 252 252 252 253 251 249 248 248 246 246 246 246 247 248 250 251 252 251 251 251 251 251 251 252
255 255 255 256 256 257 257 257 257 256 256 257 256 254 254 254 254 254 253 253 254 253 252 252 252 251 249 248 247 247 247 246 248 250 252 252 252 251 251 251 250 251 252
255 255 255 256 256 256 256 257 257 257 257 257 257 255 253 255 255 256 254 254 255 255 254 252 252 251 251 249 248 249 248 247 248 250 251 252 251 251 252 252 252 252 252
255 254 254 254 256 256 256 257 258 259 260 259 259 258 256 256 256 256 255 254 254 254 254 253 252 252 251 252 252 252 252 252 251 250 252 252 252 252 253 253 253 253 254
255 255 255 255 256 257 257 258 258 259 260 260 260 261 259 259 259 257 256 255 254 254 254 254 254 253 252 252 252 253 253 254 254 253 253 253 252 251 251 252 252 253 254
258 257 256 256 256 257 258 259 260 260 260 261 262 262 261 260 259 258 257 257 256 256 255 255 255 255 254 254 254 253 254 254 254 255 255 254 252 251 250 250 252 253 253
258 258 257 258 258 258 259 260 260 261 261 262 263 263 263 261 260 259 258 257 257 257 257 256 256 256 255 254 254 254 254 254 255 255 255 254 253 252 251 250 251 252 253
259 258 258 258 259 260 260 260 260 260 261 261 262 262 263 262 261 260 260 259 258 258 258 257 256 256 255 255 255 255 255 255 255 255 255 254 254 253 252 251 251 251 253
260 259 259 259 260 260 261 261 261 261 261 262 263 264 263 263 262 260 260 260 260 258 258 257 256 256 256 255 255 256 255 255 255 255 255 255 254 253 253 253 253 253 253
262 261 259 259 260 261 261 261 261 262 262 263 264 265 264 264 264 261 261 260 260 259 258 258 257 257 256 256 256 255 255 255 254 255 255 254 253 253 253 253 254 254 254
264 262 261 260 260 261 261 261 262 263 263 264 264 265 265 266 264 263 262 261 260 260 259 259 259 259 258 257 256 256 256 255 254 254 255 254 254 254 253 253 253 253 253
266 264 262 261 261 261 261 261 262 263 263 264 264 265 266 266 265 264 263 261 261 260 259 259 258 259 258 257 257 257 256 256 255 254 254 254 254 253 252 253 253 253 253
268 267 265 263 262 261 261 261 262 262 263 263 264 265 265 266 265 265 264 261 260 261 260 259 259 258 258 258 258 258 257 257 256 255 254 254 253 253 253 253 253 253 254
271 269 267 265 264 262 261 261 261 262 263 263 264 264 265 265 264 264 264 263 262 261 261 259 259 258 257 257 257 258 257 257 257 257 256 255 255 254 253 253 253 252 254
272 271 269 267 265 263 262 261 261 262 262 263 263 263 264 264 264 263 263 263 262 261 260 259 259 258 258 257 258 258 257 257 256 255 255 256 256 256 255 254 253 253 253
274 273 271 269 266 265 263 262 261 261 261 262 262 263 263 264 263 263 262 261 261 261 260 260 259 259 258 258 258 258 257 257 257 256 256 256 255 255 255 255 254 254 254
275 274 273 271 269 266 264 262 261 261 261 261 261 261 262 263 262 263 262 261 261 261 260 260 259 259 258 258 257 257 258 258 257 256 256 255 255 255 255 254 254 254 254
277 276 274 273 271 268 265 263 261 261 261 261 261 261 261 262 261 261 261 260 260 260 260 259 258 257 257 257 257 258 258 258 258 257 256 255 254 254 254 254 253 253 253
278 277 276 274 272 269 267 265 263 261 261 261 261 261 261 262 262 261 260 259 259 259 258 257 257 257 257 257 257 257 257 258 258 257 256 255 254 254 253 253 253 253 253
Height
5842 5842 5842 5843 5844 5844 5845 5845 5846 5846 5847 5848 5848 5849 5850 5851 5851 5852 5853 5854 5854 5855 5855 5856 5857 5858 5858 5859 5859 5860 5861 5861 5862 5862 5863 5863 5864 5864 5865 5865 5866 5867 5867
5839 5839 5840 5841 5841 5842 5842 5843 5844 5844 5845 5846 5846 5847 5848 5849 5850 5851 5851 5852 5853 5853 5854 5855 5855 5856 5857 5858 5858 5859 5860 5860 5861 5861 5862 5863 5863 5864 5864 5865 5865 5866 5866
5836 5837 5838 5838 5839 5839 5840 5841 5841 5842 5843 5844 5844 5845 5846 5847 5848 5849 5849 5850 5851 5852 5852 5853 5854 5854 5855 5856 5857 5858 5858 5859 5860 5860 5861 5862 5862 5863 5863 5864 5864 5865 5865
5833 5834 5835 5835 5836 5837 5837 5838 5839 5839 5840 5841 5842 5843 5844 5845 5845 5846 5847 5848 5849 5850 5850 5851 5852 5852 5853 5854 5855 5856 5857 5857 5858 5859 5860 5860 5861 5862 5862 5863 5863 5864 5864
5830 5831 5832 5832 5833 5834 5834 5835 5836 5837 5837 5838 5839 5840 5841 5842 5843 5843 5844 5845 5846 5847 5848 5848 5849 5850 5851 5852 5853 5854 5855 5855 5856 5857 5858 5859 5860 5860 5860 5861 5861 5862 5863
5827 5827 5828 5829 5830 5831 5831 5832 5833 5833 5834 5835 5836 5836 5837 5838 5839 5840 5841 5842 5843 5844 5845 5846 5846 5847 5848 5849 5850 5851 5852 5853 5854 5855 5856 5857 5857 5858 5859 5859 5860 5860 5861
5823 5823 5824 5825 5826 5827 5828 5829 5829 5830 5831 5831 5832 5833 5834 5835 5836 5837 5838 5839 5840 5841 5842 5843 5843 5844 5845 5846 5847 5848 5849 5850 5851 5852 5853 5854 5855 5856 5856 5857 5858 5858 5859
5818 5819 5820 5821 5822 5823 5824 5825 5825 5826 5827 5828 5828 5829 5830 5831 5832 5833 5834 5835 5836 5837 5838 5839 5840 5841 5842 5843 5844 5845 5846 5847 5848 5849 5850 5851 5852 5853 5853 5854 5855 5856 5856
5814 5815 5816 5817 5818 5818 5820 5820 5821 5822 5823 5824 5824 5825 5826 5827 5828 5829 5829 5830 5832 5833 5834 5835 5836 5837 5838 5839 5840 5841 5842 5844 5845 5846 5847 5848 5849 5849 5850 5851 5852 5853 5854
5808 5810 5811 5811 5813 5814 5815 5816 5817 5817 5818 5819 5820 5821 5822 5823 5824 5824 5825 5826 5827 5828 5829 5830 5831 5832 5833 5835 5836 5837 5838 5839 5841 5842 5843 5844 5845 5846 5847 5847 5848 5849 5850
5803 5804 5805 5806 5807 5808 5809 5811 5812 5812 5813 5814 5815 5816 5817 5818 5819 5820 5821 5821 5822 5823 5824 5825 5826 5828 5829 5830 5831 5832 5833 5835 5836 5837 5839 5840 5841 5842 5842 5844 5845 5846 5847
5796 5798 5799 5800 5801 5802 5804 5805 5806 5807 5808 5809 5810 5811 5812 5813 5813 5814 5815 5816 5817 5818 5819 5820 5821 5822 5823 5824 5826 5827 5828 5830 5831 5832 5834 5835 5836 5837 5838 5839 5840 5841 5843
5790 5791 5792 5793 5795 5796 5797 5799 5800 5801 5802 5803 5804 5805 5806 5806 5807 5808 5809 5810 5811 5812 5813 5814 5815 5816 5818 5819 5820 5821 5823 5824 5825 5827 5828 5829 5830 5832 5833 5834 5835 5837 5838
5783 5784 5785 5786 5788 5789 5790 5792 5793 5794 5795 5796 5797 5798 5799 5800 5800 5801 5802 5803 5804 5805 5806 5808 5809 5810 5811 5812 5814 5815 5816 5818 5819 5820 5822 5823 5824 5826 5827 5828 5830 5831 5833
5775 5776 5777 5779 5780 5781 5783 5784 5785 5786 5788 5789 5789 5790 5791 5792 5793 5794 5795 5796 5797 5798 5799 5800 5802 5803 5804 5805 5807 5808 5810 5811 5812 5814 5815 5817 5818 5820 5821 5822 5824 5826 5827
5766 5767 5769 5770 5771 5773 5774 5776 5777 5778 5779 5780 5781 5782 5783 5784 5785 5786 5787 5788 5789 5790 5791 5792 5794 5795 5797 5798 5799 5801 5802 5804 5805 5806 5808 5809 5811 5813 5814 5816 5818 5819 5821
5757 5758 5759 5760 5762 5763 5765 5766 5767 5769 5770 5771 5772 5773 5774 5774 5775 5777 5778 5779 5780 5781 5783 5784 5785 5787 5788 5790 5791 5793 5794 5796 5797 5799 5800 5802 5803 5805 5807 5809 5810 5812 5814
5746 5747 5749 5750 5752 5753 5755 5756 5757 5759 5760 5761 5762 5763 5764 5765 5766 5767 5768 5769 5770 5772 5773 5774 5776 5777 5779 5780 5782 5784 5785 5787 5789 5790 5792 5794 5795 5797 5799 5801 5803 5805 5807
5736 5736 5737 5739 5740 5742 5743 5745 5746 5747 5749 5750 5751 5752 5753 5754 5755 5756 5758 5759 5760 5761 5763 5764 5766 5767 5769 5770 5772 5774 5776 5778 5779 5781 5783 5785 5787 5789 5791 5793 5795 5797 5799
5725 5725 5725 5726 5728 5729 5731 5732 5734 5735 5737 5738 5739 5740 5741 5742 5743 5745 5746 5748 5749 5750 5751 5753 5754 5756 5758 5760 5761 5763 5765 5767 5769 5771 5774 5775 5777 5779 5782 5784 5786 5789 5791
5713 5713 5713 5713 5714 5716 5717 5719 5721 5722 5724 5725 5726 5727 5728 5730 5731 5732 5734 5736 5737 5738 5740 5741 5743 5745 5746 5748 5750 5753 5755 5757 5759 5761 5763 5765 5767 5770 5772 5774 5777 5779 5782
5701 5700 5700 5700 5700 5701 5702 5704 5706 5708 5709 5711 5712 5713 5715 5716 5717 5719 5721 5722 5724 5726 5727 5729 5730 5732 5734 5736 5738 5740 5743 5747 5748 5750 5752 5754 5757 5759 5761 5764 5766 5769 5772
5687 5687 5686 5685 5685 5686 5687 5689 5690 5692 5694 5695 5697 5699 5700 5702 5703 5704 5706 5708 5710 5711 5713 5715 5717 5720 5722 5724 5725 5728 5730 5734 5736 5739 5741 5743 5745 5748 5750 5753 5755 5758 5761
5674 5672 5671 5670 5670 5670 5671 5672 5674 5676 5678 5680 5681 5683 5685 5686 5688 5689 5691 5693 5695 5697 5699 5701 5703 5706 5708 5711 5713 5715 5717 5719 5722 5726 5729 5731 5733 5736 5738 5741 5744 5747 5749
5660 5659 5658 5657 5656 5655 5656 5657 5658 5660 5662 5663 5665 5668 5669 5670 5672 5673 5675 5677 5679 5682 5684 5687 5689 5691 5694 5696 5699 5701 5703 5705 5707 5711 5715 5718 5720 5723 5726 5729 5732 5734 5737
5647 5645 5644 5643 5642 5641 5641 5642 5643 5644 5646 5648 5649 5651 5652 5654 5655 5657 5658 5661 5663 5666 5668 5671 5674 5676 5679 5682 5684 5686 5689 5691 5694 5696 5700 5704 5706 5710 5713 5716 5719 5722 5725